STARLINK-36493, 67456

Orbit data source: Space-Track

STARLINK-36493, 67456 is a payload satellite owned by SpaceX/Seattle (US) in LEO that was launched on Wed, 14 Jan 2026 UTC via an FALCON 9 launch vehicle from the Air Force Eastern Test Range (AFETR). Payload-class satellites include a variety of spacecraft equipped with specific instruments for various scientific and technological missions. These include communications satellites like Starlink; space stations such as the ISS; scientific satellites like the Hubble; Earth observation satellites from companies like Planet Labs, Umbra, and HawkEye 360; GPS; miniature CubeSats for education and research; and military/defense satellites.

Loading next visibility...
Identifier
67456, 2026-008M
Orbit
LEO
Country
Flag of USUS
Related business
Manufacturer
SpaceX/Seattle
Mission
Operational spacecraft
Bus & Motor
STARLINK V2MO, Unknown motor
Mass
575 kg wet, ~530 kg dry
Launch date (UTC)
2026-01-14 (2 months ago)
Launch vehicle
FALCON 9
Launch site
Air Force Eastern Test Range (AFETR)
Object type
Payload
Rocket body
Debris
Shape & HBR
Unknown shape, 17.7 m
Radar Cross Section
RCS unknown

Expand to show TLE details & history
Last TLE update: 20 hours ago

TLE from 20 hours ago
0 STARLINK-36493
1 67456U 26008M   26062.47611000  .00024159  00000-0  88438-3 0  9994
2 67456  42.9945 240.1668 0001654 199.1850 160.8940 15.27586936  8625
Epoch: 2026-03-03T11:25Z
TLE epoch observation values (Epoch: 2026-03-03T11:25:35.904Z)
Latitude
0.00004°
Longitude
-92.48738°
Altitude
483.875 km
Speed
7.625 km/s
True Right ascension
16h 00m 40s
True Declination
0° 00' 00"
Sunlit
Object was in daylight at epoch
Visualization orbit readout
Latitude
Unknown
Longitude
Unknown
Altitude
Unknown
Speed
Unknown
Apparent Right ascension
Unknown
Apparent Declination
Unknown
Sunlit
N/A
Visualization observer readout
Local Sidereal Time
11:18:20
Azimuth
Unknown
Elevation
Unknown
Doppler factor
Unknown
Orbital elements
Apogee altitude
486.11 km
Perigee altitude
483.839 km
Semi-major axis
6,863.111 km
Eccentricity
0.00017
Inclination
42.9945°
RAAN
240.1668°
Arg. of periapsis
199.185°
True anomaly
160.9002°
Mean anomaly
160.894°
Eccentric anomaly
160.8971°
Mean motion
3.81735 °/min
Orbital period
94.31 mins
BSTAR
0.00088438
Loading maneuver chart data...
Computing Atmospheric mass density...
Loading historical data...
Loading historical data...
Loading historical data...
Loading historical data...
Loading historical data...
Loading historical data...
Loading historical data...

Documentation

Showing up to 5 results
|